Joy — V2EI9 — position and weather

sailwx.info

Track history (hours):
 
Tides and Currents Weather Stations Pressure Air Temp Water Temp Dewpoint Dewpoint Depression Visibility Wind Speed Wind Dir Waves Ship Positions

Joy

Last reported at 2014-Oct-26 00:34 UTC. Time now 2014-Oct-26 01:15 UTC.
Position N 51°31' W 008°48'.

Length 105 m; draft 4.1 m.

Type: Cargo ship. MMSI: 305444000.

Date/timePositionNaut miles runAvg speedWind from/ knotsBaromVisibWave heightAir tempDewpointWater temp
2014-Oct-26 00:34N 51°31' W 008°48'1010.4
2014-Oct-25 23:34N 51°34' W 008°32'1010.3
2014-Oct-25 22:33N 51°37' W 008°16'1010.4
2014-Oct-25 21:34N 51°41' W 008°01'10 9.7
2014-Oct-25 20:34N 51°46' W 007°48'9 9.3
2014-Oct-25 19:34N 51°51' W 007°35'9 9.0
2014-Oct-25 18:33N 51°57' W 007°23'9 9.2
2014-Oct-25 17:34N 52°02' W 007°11'9 8.9
2014-Oct-25 16:33N 52°07' W 006°59'8 7.3
2014-Oct-25 15:32N 52°15' W 006°59'2 2.4
2014-Oct-25 14:33N 52°16' W 007°02'0 0.0
2014-Oct-25 13:33N 52°16' W 007°02'0 0.0
2014-Oct-25 12:33N 52°16' W 007°02'0 0.0
2014-Oct-25 11:32N 52°16' W 007°02'0 0.0
2014-Oct-25 10:29N 52°16' W 007°02'0 0.0
2014-Oct-25 09:32N 52°16' W 007°02'0 0.0
2014-Oct-25 08:32N 52°16' W 007°02'0 0.0
2014-Oct-25 07:26N 52°16' W 007°02'0 0.0
2014-Oct-25 06:32N 52°16' W 007°02'0 0.0
2014-Oct-25 05:32N 52°16' W 007°02'0 0.0
2014-Oct-25 04:32N 52°16' W 007°02'0 0.0
2014-Oct-25 03:32N 52°16' W 007°02'0 0.0
2014-Oct-25 02:32N 52°16' W 007°02'0 0.0
2014-Oct-25 01:32N 52°16' W 007°02'0 0.0
2014-Oct-25 00:32N 52°16' W 007°02'0 0.0
2014-Oct-24 23:29N 52°16' W 007°02'0 0.0
2014-Oct-24 22:32N 52°16' W 007°02'0 0.0
2014-Oct-24 21:32N 52°16' W 007°02'0 0.0
2014-Oct-24 20:29N 52°16' W 007°02'0 0.0
2014-Oct-24 19:29N 52°16' W 007°02'0 0.0
2014-Oct-24 18:20N 52°16' W 007°02'0 0.0
2014-Oct-24 17:32N 52°16' W 007°02'0 0.0
2014-Oct-24 16:23N 52°16' W 007°02'0 0.0
2014-Oct-24 15:29N 52°16' W 007°02'0 0.0
2014-Oct-24 14:32N 52°16' W 007°02'0 0.0
2014-Oct-24 13:29N 52°16' W 007°02'0 0.0
2014-Oct-24 12:32N 52°16' W 007°02'0 0.0
2014-Oct-24 11:32N 52°16' W 007°02'0 0.0
2014-Oct-24 10:32N 52°16' W 007°02'0 0.0
2014-Oct-24 09:29N 52°16' W 007°02'0 0.0
2014-Oct-24 08:32N 52°16' W 007°02'0 0.0
2014-Oct-24 07:32N 52°16' W 007°02'0 0.0
2014-Oct-24 06:32N 52°16' W 007°02'0 0.0
2014-Oct-24 05:32N 52°16' W 007°02'0 0.0
2014-Oct-24 04:32N 52°16' W 007°02'0 0.0
2014-Oct-24 03:32N 52°16' W 007°02'0 0.0
2014-Oct-24 02:32N 52°16' W 007°02'0 0.0
2014-Oct-24 01:32N 52°16' W 007°02'0 0.0
2014-Oct-24 00:32N 52°16' W 007°02'0 0.0
2014-Oct-23 23:29N 52°16' W 007°02'0 0.0
2014-Oct-23 22:29N 52°16' W 007°02'0 0.0
2014-Oct-23 21:32N 52°16' W 007°02'0 0.0
2014-Oct-23 20:32N 52°16' W 007°02'0 0.0
2014-Oct-23 19:32N 52°16' W 007°02'0 0.0
2014-Oct-23 18:31N 52°16' W 007°02'0 0.0
2014-Oct-23 17:31N 52°16' W 007°02'0 0.0
2014-Oct-23 16:33N 52°16' W 007°02'3 3.2
2014-Oct-23 15:33N 52°14' W 006°57'8 7.7
2014-Oct-23 14:33N 52°07' W 006°59'3 2.5
2014-Oct-23 13:33N 52°04' W 006°58'7 7.3
2014-Oct-23 12:33N 51°58' W 006°53'173 8.2
2014-Oct-22 15:23N 49°58' W 003°35'10 9.6
2014-Oct-22 14:20N 49°59' W 003°19'910.7
2014-Oct-22 13:32N 49°60' W 003°06'175 7.9
2014-Oct-21 15:32N 50°54' E 001°15'8 7.9
2014-Oct-21 14:33N 50°59' E 001°24'6 6.3
2014-Oct-21 13:33N 51°04' E 001°31'5 5.0
2014-Oct-21 12:34N 51°08' E 001°36'4 4.0
2014-Oct-21 11:33N 51°10' E 001°41'4 3.8
2014-Oct-21 10:33N 51°13' E 001°45'4 3.6
2014-Oct-21 09:33N 51°15' E 001°49'4 4.2
2014-Oct-21 08:33N 51°19' E 001°53'7 6.6
2014-Oct-21 07:33N 51°25' E 001°58'9 8.7
2014-Oct-21 06:33N 51°32' E 002°06'10 9.9
2014-Oct-21 05:33N 51°39' E 002°16'61 8.7
2014-Oct-20 22:33N 52°28' E 003°17'9 9.5
2014-Oct-20 21:33N 52°35' E 003°26'1010.1
2014-Oct-20 20:33N 52°43' E 003°37'1110.4
2014-Oct-20 19:33N 52°51' E 003°48'1010.1
2014-Oct-20 18:33N 52°58' E 003°60'10 9.9
2014-Oct-20 17:33N 53°04' E 004°12'9 9.2
2014-Oct-20 16:33N 53°10' E 004°24'50 8.3
2014-Oct-20 10:33N 53°58' E 004°50'8 7.8
2014-Oct-20 09:32N 54°05' E 004°55'7 6.8
2014-Oct-20 08:32N 54°11' E 004°60'217 6.8
2014-Oct-19 00:33N 57°17' E 008°16'8 8.3
2014-Oct-18 23:33N 57°21' E 008°30'25 8.3
2014-Oct-18 20:33N 57°32' E 009°11'9 8.6
2014-Oct-18 19:33N 57°36' E 009°26'9 8.8
2014-Oct-18 18:33N 57°40' E 009°41'9 8.9
2014-Oct-18 17:32N 57°40' E 009°58'7 6.8
2014-Oct-18 16:32N 57°40' E 010°10'0 0.0
2014-Oct-18 15:32N 57°40' E 010°10'0 0.0
2014-Oct-18 14:32N 57°40' E 010°10'2 0.7
2014-Oct-18 12:23N 57°41' E 010°13'0 0.0
2014-Oct-18 11:32N 57°41' E 010°13'0 0.0
2014-Oct-18 10:32N 57°41' E 010°13'0 0.0
2014-Oct-18 09:17N 57°41' E 010°13'0 0.0
2014-Oct-18 08:23N 57°41' E 010°13'0 0.0
2014-Oct-18 07:32N 57°41' E 010°13'0 0.0
2014-Oct-18 06:32N 57°41' E 010°13'3 3.6
2014-Oct-18 05:33N 57°43' E 010°18'10 9.6
2014-Oct-18 04:33N 57°48' E 010°34'1010.1
2014-Oct-18 03:33N 57°45' E 010°52'1111.5
2014-Oct-18 02:33N 57°37' E 011°08'1211.6
2014-Oct-18 01:33N 57°30' E 011°24'1211.6
2014-Oct-18 00:33N 57°19' E 011°32'1211.9
2014-Oct-17 23:33N 57°08' E 011°39'1211.5
2014-Oct-17 22:33N 56°57' E 011°47'1211.7
2014-Oct-17 21:33N 56°46' E 011°54'1111.0
2014-Oct-17 20:32N 56°35' E 011°59'1111.4
2014-Oct-17 19:33N 56°24' E 012°02'1110.6
2014-Oct-17 18:33N 56°15' E 012°13'1111.1
2014-Oct-17 17:33N 56°09' E 012°29'1212.2
2014-Oct-17 16:33N 55°59' E 012°42'1111.1
2014-Oct-17 15:33N 55°48' E 012°42'1211.8
2014-Oct-17 14:33N 55°36' E 012°42'1111.0
2014-Oct-17 13:33N 55°25' E 012°42'9 9.0
2014-Oct-17 12:33N 55°17' E 012°49'1110.8
2014-Oct-17 11:33N 55°16' E 013°07'3911.1
2014-Oct-17 08:04N 55°13' E 014°15'710.7
2014-Oct-17 07:26N 55°18' E 014°23'2010.8
2014-Oct-17 05:32N 55°31' E 014°51'2510.8
2014-Oct-17 03:13N 55°44' E 015°29'1011.2
2014-Oct-17 02:20N 55°49' E 015°45'1211.1
2014-Oct-17 01:18N 55°55' E 016°02'811.2
2014-Oct-17 00:33N 55°59' E 016°15'  
Track history (hours):
 
Tides and Currents Weather Stations Pressure Air Temp Water Temp Dewpoint Dewpoint Depression Visibility Wind Speed Wind Dir Waves Ship Positions

Joy

Last reported at 2014-Oct-26 00:34 UTC. Time now 2014-Oct-26 01:15 UTC.
Position N 51°31' W 008°48'.

Length 105 m; draft 4.1 m.

Type: Cargo ship. MMSI: 305444000.

Date/timePositionNaut miles runAvg speedWind from/ knotsBaromVisibWave heightAir tempDewpointWater temp
2014-Oct-26 00:34N 51°31' W 008°48'1010.4
2014-Oct-25 23:34N 51°34' W 008°32'1010.3
2014-Oct-25 22:33N 51°37' W 008°16'1010.4
2014-Oct-25 21:34N 51°41' W 008°01'10 9.7
2014-Oct-25 20:34N 51°46' W 007°48'9 9.3
2014-Oct-25 19:34N 51°51' W 007°35'9 9.0
2014-Oct-25 18:33N 51°57' W 007°23'9 9.2
2014-Oct-25 17:34N 52°02' W 007°11'9 8.9
2014-Oct-25 16:33N 52°07' W 006°59'8 7.3
2014-Oct-25 15:32N 52°15' W 006°59'2 2.4
2014-Oct-25 14:33N 52°16' W 007°02'0 0.0
2014-Oct-25 13:33N 52°16' W 007°02'0 0.0
2014-Oct-25 12:33N 52°16' W 007°02'0 0.0
2014-Oct-25 11:32N 52°16' W 007°02'0 0.0
2014-Oct-25 10:29N 52°16' W 007°02'0 0.0
2014-Oct-25 09:32N 52°16' W 007°02'0 0.0
2014-Oct-25 08:32N 52°16' W 007°02'0 0.0
2014-Oct-25 07:26N 52°16' W 007°02'0 0.0
2014-Oct-25 06:32N 52°16' W 007°02'0 0.0
2014-Oct-25 05:32N 52°16' W 007°02'0 0.0
2014-Oct-25 04:32N 52°16' W 007°02'0 0.0
2014-Oct-25 03:32N 52°16' W 007°02'0 0.0
2014-Oct-25 02:32N 52°16' W 007°02'0 0.0
2014-Oct-25 01:32N 52°16' W 007°02'0 0.0
2014-Oct-25 00:32N 52°16' W 007°02'0 0.0
2014-Oct-24 23:29N 52°16' W 007°02'0 0.0
2014-Oct-24 22:32N 52°16' W 007°02'0 0.0
2014-Oct-24 21:32N 52°16' W 007°02'0 0.0
2014-Oct-24 20:29N 52°16' W 007°02'0 0.0
2014-Oct-24 19:29N 52°16' W 007°02'0 0.0
2014-Oct-24 18:20N 52°16' W 007°02'0 0.0
2014-Oct-24 17:32N 52°16' W 007°02'0 0.0
2014-Oct-24 16:23N 52°16' W 007°02'0 0.0
2014-Oct-24 15:29N 52°16' W 007°02'0 0.0
2014-Oct-24 14:32N 52°16' W 007°02'0 0.0
2014-Oct-24 13:29N 52°16' W 007°02'0 0.0
2014-Oct-24 12:32N 52°16' W 007°02'0 0.0
2014-Oct-24 11:32N 52°16' W 007°02'0 0.0
2014-Oct-24 10:32N 52°16' W 007°02'0 0.0
2014-Oct-24 09:29N 52°16' W 007°02'0 0.0
2014-Oct-24 08:32N 52°16' W 007°02'0 0.0
2014-Oct-24 07:32N 52°16' W 007°02'0 0.0
2014-Oct-24 06:32N 52°16' W 007°02'0 0.0
2014-Oct-24 05:32N 52°16' W 007°02'0 0.0
2014-Oct-24 04:32N 52°16' W 007°02'0 0.0
2014-Oct-24 03:32N 52°16' W 007°02'0 0.0
2014-Oct-24 02:32N 52°16' W 007°02'0 0.0
2014-Oct-24 01:32N 52°16' W 007°02'0 0.0
2014-Oct-24 00:32N 52°16' W 007°02'0 0.0
2014-Oct-23 23:29N 52°16' W 007°02'0 0.0
2014-Oct-23 22:29N 52°16' W 007°02'0 0.0
2014-Oct-23 21:32N 52°16' W 007°02'0 0.0
2014-Oct-23 20:32N 52°16' W 007°02'0 0.0
2014-Oct-23 19:32N 52°16' W 007°02'0 0.0
2014-Oct-23 18:31N 52°16' W 007°02'0 0.0
2014-Oct-23 17:31N 52°16' W 007°02'0 0.0
2014-Oct-23 16:33N 52°16' W 007°02'3 3.2
2014-Oct-23 15:33N 52°14' W 006°57'8 7.7
2014-Oct-23 14:33N 52°07' W 006°59'3 2.5
2014-Oct-23 13:33N 52°04' W 006°58'7 7.3
2014-Oct-23 12:33N 51°58' W 006°53'173 8.2
2014-Oct-22 15:23N 49°58' W 003°35'10 9.6
2014-Oct-22 14:20N 49°59' W 003°19'910.7
2014-Oct-22 13:32N 49°60' W 003°06'175 7.9
2014-Oct-21 15:32N 50°54' E 001°15'8 7.9
2014-Oct-21 14:33N 50°59' E 001°24'6 6.3
2014-Oct-21 13:33N 51°04' E 001°31'5 5.0
2014-Oct-21 12:34N 51°08' E 001°36'4 4.0
2014-Oct-21 11:33N 51°10' E 001°41'4 3.8
2014-Oct-21 10:33N 51°13' E 001°45'4 3.6
2014-Oct-21 09:33N 51°15' E 001°49'4 4.2
2014-Oct-21 08:33N 51°19' E 001°53'7 6.6
2014-Oct-21 07:33N 51°25' E 001°58'9 8.7
2014-Oct-21 06:33N 51°32' E 002°06'10 9.9
2014-Oct-21 05:33N 51°39' E 002°16'61 8.7
2014-Oct-20 22:33N 52°28' E 003°17'9 9.5
2014-Oct-20 21:33N 52°35' E 003°26'1010.1
2014-Oct-20 20:33N 52°43' E 003°37'1110.4
2014-Oct-20 19:33N 52°51' E 003°48'1010.1
2014-Oct-20 18:33N 52°58' E 003°60'10 9.9
2014-Oct-20 17:33N 53°04' E 004°12'9 9.2
2014-Oct-20 16:33N 53°10' E 004°24'50 8.3
2014-Oct-20 10:33N 53°58' E 004°50'8 7.8
2014-Oct-20 09:32N 54°05' E 004°55'7 6.8
2014-Oct-20 08:32N 54°11' E 004°60'217 6.8
2014-Oct-19 00:33N 57°17' E 008°16'8 8.3
2014-Oct-18 23:33N 57°21' E 008°30'25 8.3
2014-Oct-18 20:33N 57°32' E 009°11'9 8.6
2014-Oct-18 19:33N 57°36' E 009°26'9 8.8
2014-Oct-18 18:33N 57°40' E 009°41'9 8.9
2014-Oct-18 17:32N 57°40' E 009°58'7 6.8
2014-Oct-18 16:32N 57°40' E 010°10'0 0.0
2014-Oct-18 15:32N 57°40' E 010°10'0 0.0
2014-Oct-18 14:32N 57°40' E 010°10'2 0.7
2014-Oct-18 12:23N 57°41' E 010°13'0 0.0
2014-Oct-18 11:32N 57°41' E 010°13'0 0.0
2014-Oct-18 10:32N 57°41' E 010°13'0 0.0
2014-Oct-18 09:17N 57°41' E 010°13'0 0.0
2014-Oct-18 08:23N 57°41' E 010°13'0 0.0
2014-Oct-18 07:32N 57°41' E 010°13'0 0.0
2014-Oct-18 06:32N 57°41' E 010°13'3 3.6
2014-Oct-18 05:33N 57°43' E 010°18'10 9.6
2014-Oct-18 04:33N 57°48' E 010°34'1010.1
2014-Oct-18 03:33N 57°45' E 010°52'1111.5
2014-Oct-18 02:33N 57°37' E 011°08'1211.6
2014-Oct-18 01:33N 57°30' E 011°24'1211.6
2014-Oct-18 00:33N 57°19' E 011°32'1211.9
2014-Oct-17 23:33N 57°08' E 011°39'1211.5
2014-Oct-17 22:33N 56°57' E 011°47'1211.7
2014-Oct-17 21:33N 56°46' E 011°54'1111.0
2014-Oct-17 20:32N 56°35' E 011°59'1111.4
2014-Oct-17 19:33N 56°24' E 012°02'1110.6
2014-Oct-17 18:33N 56°15' E 012°13'1111.1
2014-Oct-17 17:33N 56°09' E 012°29'1212.2
2014-Oct-17 16:33N 55°59' E 012°42'1111.1
2014-Oct-17 15:33N 55°48' E 012°42'1211.8
2014-Oct-17 14:33N 55°36' E 012°42'1111.0
2014-Oct-17 13:33N 55°25' E 012°42'9 9.0
2014-Oct-17 12:33N 55°17' E 012°49'1110.8
2014-Oct-17 11:33N 55°16' E 013°07'3911.1
2014-Oct-17 08:04N 55°13' E 014°15'710.7
2014-Oct-17 07:26N 55°18' E 014°23'2010.8
2014-Oct-17 05:32N 55°31' E 014°51'2510.8
2014-Oct-17 03:13N 55°44' E 015°29'1011.2
2014-Oct-17 02:20N 55°49' E 015°45'1211.1
2014-Oct-17 01:18N 55°55' E 016°02'811.2
2014-Oct-17 00:33N 55°59' E 016°15'  

Dump ship's entire track history